Location: Oriwa
(40.7500°S, 175.3333°E)
Time: 14:08:24
(UTC+00:00)

Cosmos 2082 Rocket - Pass Details

Date: 03 February 2023
Orbit: 834 x 852 km, 71.0° (Epoch: 30 March)

Event Time Altitude Azimuth Distance (km) Brightness Sun altitude
Rises 13:29:31 0° 219° (SW) 3,426 5.8 -31.2°
Reaches altitude 10° 13:32:34 10° 234° (SW) 2,486 4.8 -31.1°
Enters shadow 13:34:01 15° 247° (WSW) 2,141 4.3 -31.0°
